Hourly Weather Godzieszowa

Today, 21 January, Thursday

Time Temperature Precipitation Wind Pressure Humidity
00:00 0°C° 0 mm 4 mps 740 mmHg 76%
01:00 0°C° 0 mm 4 mps 740 mmHg 78%
02:00 0°C° 0 mm 4 mps 739 mmHg 80%
03:00 0°C° 0 mm 4 mps 739 mmHg 82%
04:00 0°C° 0 mm 5 mps 739 mmHg 85%
05:00 0°C° 0 mm 5 mps 739 mmHg 85%
06:00 0°C° 0 mm 5 mps 739 mmHg 86%
07:00 -1°C° 0 mm 6 mps 739 mmHg 85%
08:00 0°C° 0 mm 5 mps 739 mmHg 86%
09:00 +1°C° 0 mm 5 mps 739 mmHg 87%
10:00 +1°C° 0 mm 5 mps 739 mmHg 88%
11:00 +1°C° 0 mm 5 mps 739 mmHg 88%
12:00 +2°C° 0 mm 5 mps 739 mmHg 88%
13:00 +2°C° 0 mm 5 mps 738 mmHg 88%
14:00 +3°C° 0 mm 4 mps 738 mmHg 88%
15:00 +1°C° 0 mm 4 mps 738 mmHg 87%
16:00 +1°C° 0 mm 4 mps 738 mmHg 87%
17:00 +1°C° 0 mm 4 mps 738 mmHg 85%
18:00 +1°C° 0 mm 4 mps 738 mmHg 84%
19:00 +1°C° 0 mm 4 mps 738 mmHg 82%
20:00 +1°C° 0 mm 4 mps 738 mmHg 82%
21:00 +1°C° 0 mm 4 mps 738 mmHg 81%
22:00 0°C° 0 mm 4 mps 738 mmHg 80%
23:00 0°C° 0 mm 4 mps 738 mmHg 80%

Tomorrow, 22 January, Friday

Time Temperature Precipitation Wind Pressure Humidity
00:00 +1°C° 0 mm 3 mps 737 mmHg 80%
01:00 +1°C° 0 mm 3 mps 737 mmHg 80%
02:00 +1°C° 0 mm 3 mps 736 mmHg 81%
03:00 +1°C° 0 mm 3 mps 736 mmHg 83%
04:00 +1°C° 0 mm 3 mps 735 mmHg 85%
05:00 +1°C° 0 mm 3 mps 734 mmHg 85%
06:00 +1°C° 0 mm 3 mps 734 mmHg 86%
07:00 +2°C° 0 mm 2 mps 733 mmHg 87%
08:00 +1°C° 0 mm 3 mps 733 mmHg 87%
09:00 +2°C° 0 mm 3 mps 733 mmHg 88%
10:00 +1°C° 0 mm 4 mps 733 mmHg 88%
11:00 +3°C° 0 mm 4 mps 733 mmHg 85%
12:00 +2°C° 0 mm 5 mps 733 mmHg 82%
13:00 +3°C° 0 mm 5 mps 732 mmHg 79%
14:00 +3°C° 0 mm 5 mps 732 mmHg 80%
15:00 +2°C° 0 mm 5 mps 733 mmHg 82%
16:00 +2°C° 0 mm 5 mps 733 mmHg 83%
17:00 +1°C° 0 mm 4 mps 733 mmHg 85%
18:00 +2°C° 0 mm 3 mps 733 mmHg 86%
19:00 +1°C° 0 mm 3 mps 733 mmHg 88%
20:00 +1°C° 0 mm 3 mps 733 mmHg 88%
21:00 +2°C° 0 mm 2 mps 733 mmHg 88%
22:00 +2°C° 0 mm 2 mps 733 mmHg 88%
23:00 +2°C° 0 mm 2 mps 733 mmHg 88%

Day after tomorrow, 23 January, Saturday

Time Temperature Precipitation Wind Pressure Humidity
00:00 +1°C° 0 mm 2 mps 733 mmHg 88%
01:00 +1°C° 0 mm 2 mps 733 mmHg 88%
02:00 +1°C° 0 mm 2 mps 732 mmHg 89%
03:00 +1°C° 0 mm 2 mps 732 mmHg 90%
04:00 0°C° 0 mm 3 mps 731 mmHg 90%
05:00 +1°C° 0.3 mm 3 mps 731 mmHg 92%
06:00 +1°C° 0.3 mm 4 mps 730 mmHg 93%
07:00 +1°C° 0.3 mm 5 mps 730 mmHg 95%
08:00 +2°C° 0.2 mm 5 mps 729 mmHg 93%
09:00 +3°C° 0.2 mm 6 mps 729 mmHg 91%
10:00 +3°C° 0.2 mm 6 mps 728 mmHg 89%
11:00 +4°C° 0 mm 6 mps 728 mmHg 87%
12:00 +5°C° 0 mm 6 mps 728 mmHg 85%
13:00 +6°C° 0 mm 5 mps 727 mmHg 84%
14:00 +5°C° 0 mm 6 mps 728 mmHg 81%
15:00 +4°C° 0 mm 6 mps 728 mmHg 79%
16:00 +3°C° 0 mm 6 mps 728 mmHg 76%
17:00 +2°C° 0 mm 6 mps 729 mmHg 79%
18:00 -1°C° 0 mm 7 mps 729 mmHg 81%
19:00 -2°C° 0 mm 7 mps 730 mmHg 83%
20:00 -2°C° 0 mm 6 mps 731 mmHg 85%
21:00 -1°C° 0 mm 5 mps 731 mmHg 87%
22:00 -2°C° 0 mm 4 mps 732 mmHg 89%
23:00 -1°C° 0 mm 4 mps 732 mmHg 88%

24 January, Sunday

Time Temperature Precipitation Wind Pressure Humidity
00:00 -1°C° 0 mm 4 mps 733 mmHg 88%
01:00 -1°C° 0 mm 4 mps 733 mmHg 87%
02:00 0°C° 0 mm 3 mps 733 mmHg 87%
03:00 0°C° 0 mm 3 mps 733 mmHg 87%
04:00 0°C° 0 mm 3 mps 733 mmHg 87%
05:00 -1°C° 0 mm 2 mps 733 mmHg 88%
06:00 -1°C° 0 mm 2 mps 733 mmHg 89%
07:00 -1°C° 0 mm 2 mps 734 mmHg 89%
08:00 -1°C° 0 mm 2 mps 734 mmHg 88%
09:00 -1°C° 0 mm 3 mps 734 mmHg 88%
10:00 -1°C° 0 mm 3 mps 734 mmHg 87%
11:00 -1°C° 0 mm 3 mps 734 mmHg 85%
12:00 +1°C° 0 mm 2 mps 734 mmHg 82%
13:00 +1°C° 0 mm 2 mps 734 mmHg 80%
14:00 +1°C° 0 mm 2 mps 734 mmHg 82%
15:00 +2°C° 0 mm 1 mps 734 mmHg 84%
16:00 +1°C° 0 mm 1 mps 734 mmHg 86%
17:00 +1°C° 0 mm 1 mps 734 mmHg 87%
18:00 +1°C° 0 mm 1 mps 734 mmHg 88%
19:00 +1°C° 0 mm 1 mps 734 mmHg 89%
20:00 0°C° 0 mm 1 mps 735 mmHg 88%
21:00 0°C° 0 mm 1 mps 735 mmHg 88%
22:00 0°C° 0 mm 1 mps 735 mmHg 88%
23:00 0°C° 0 mm 1 mps 735 mmHg 88%

25 January, Monday

Time Temperature Precipitation Wind Pressure Humidity
00:00 0°C° 0 mm 1 mps 735 mmHg 87%
01:00 0°C° 0 mm 1 mps 735 mmHg 87%
02:00 -2°C° 0 mm 2 mps 735 mmHg 88%
03:00 -2°C° 0 mm 2 mps 736 mmHg 90%
04:00 -2°C° 0 mm 3 mps 736 mmHg 92%
05:00 -2°C° 0 mm 3 mps 736 mmHg 90%
06:00 -3°C° 0 mm 4 mps 737 mmHg 88%
07:00 -2°C° 0 mm 4 mps 737 mmHg 86%
08:00 -2°C° 0 mm 4 mps 738 mmHg 84%
09:00 -2°C° 0 mm 5 mps 738 mmHg 81%
10:00 -2°C° 0 mm 5 mps 739 mmHg 78%
11:00 -1°C° 0 mm 5 mps 739 mmHg 75%
12:00 -1°C° 0 mm 5 mps 739 mmHg 71%
13:00 0°C° 0 mm 5 mps 739 mmHg 67%
14:00 -1°C° 0 mm 4 mps 740 mmHg 69%
15:00 -1°C° 0 mm 4 mps 740 mmHg 72%
16:00 -1°C° 0 mm 3 mps 740 mmHg 74%
17:00 -2°C° 0 mm 4 mps 740 mmHg 76%
18:00 -3°C° 0 mm 4 mps 741 mmHg 79%
19:00 -3°C° 0 mm 4 mps 741 mmHg 81%
20:00 -3°C° 0 mm 4 mps 741 mmHg 80%
21:00 -3°C° 0 mm 4 mps 741 mmHg 80%
22:00 -4°C° 0 mm 4 mps 742 mmHg 79%
23:00 -4°C° 0 mm 4 mps 742 mmHg 79%

26 January, Tuesday

Time Temperature Precipitation Wind Pressure Humidity
00:00 -4°C° 0 mm 4 mps 742 mmHg 78%
01:00 -4°C° 0 mm 4 mps 742 mmHg 78%
02:00 -4°C° 0 mm 4 mps 742 mmHg 79%
03:00 -4°C° 0 mm 4 mps 742 mmHg 79%
04:00 -4°C° 0 mm 4 mps 742 mmHg 80%
05:00 -4°C° 0 mm 4 mps 742 mmHg 80%
06:00 -4°C° 0 mm 4 mps 742 mmHg 81%
07:00 -4°C° 0 mm 4 mps 742 mmHg 82%
08:00 -5°C° 0 mm 5 mps 743 mmHg 79%
09:00 -4°C° 0 mm 5 mps 743 mmHg 76%
10:00 -4°C° 0 mm 6 mps 743 mmHg 74%
11:00 -3°C° 0 mm 6 mps 743 mmHg 73%
12:00 -2°C° 0 mm 6 mps 744 mmHg 71%
13:00 -2°C° 0 mm 6 mps 744 mmHg 70%
14:00 -2°C° 0 mm 6 mps 744 mmHg 70%
15:00 -2°C° 0 mm 5 mps 744 mmHg 70%
16:00 -2°C° 0 mm 5 mps 744 mmHg 70%
17:00 -2°C° 0 mm 5 mps 745 mmHg 75%
18:00 -4°C° 0 mm 5 mps 745 mmHg 81%
19:00 -4°C° 0 mm 5 mps 745 mmHg 86%
20:00 -4°C° 0 mm 4 mps 745 mmHg 86%
21:00 -4°C° 0 mm 4 mps 745 mmHg 86%
22:00 -4°C° 0 mm 4 mps 745 mmHg 86%
23:00 -4°C° 0 mm 4 mps 745 mmHg 85%
Show more